This demonstration page uses our WeatherBlox Daily Observations layout. Learn more.

Left ArrowRight Arrow

39.95238, -75.16362

Hourly Observations for January 23, 2022

Temp ( °F °C ) Dew Point ( °F °C ) Humidity (%) Winds ( mph kmh ) Pressure ( in mb ) Visibility ( mi km ) Precip ( " mm )
12:54 am 00:54 Mostly Cloudy 27 -2.8 11 -11.7 51 51 SW 8 13 30.11 1020 10 16 0.00 0.00
1:54 am 01:54 Partly Cloudy 25 -3.9 11 -11.7 55 55 SW 7 11 30.08 1019 10 16 0.00 0.00
2:54 am 02:54 Partly Cloudy 25 -3.9 12 -11.1 58 58 SW 10 17 30.07 1018 10 16 0.00 0.00
3:54 am 03:54 Partly Cloudy 24 -4.4 14 -10 65 65 WSW 7 11 30.05 1018 10 16 0.00 0.00
4:54 am 04:54 Mostly Cloudy 23 -5 14 -10 68 68 WSW 5 7 30.03 1017 10 16 0.00 0.00
5:54 am 05:54 Partly Cloudy 21 -6.1 13 -10.6 71 71 Calm 30.02 1017 10 16 0.00 0.00
6:54 am 06:54 Mostly Cloudy 23 -5 14 -10 68 68 WSW 6 9 30.03 1017 10 16 0.00 0.00
7:54 am 07:54 Mostly Cloudy 24 -4.4 15 -9.4 68 68 WSW 3 6 30.02 1017 10 16 0.00 0.00
8:54 am 08:54 Mostly Cloudy 27 -2.8 16 -8.9 63 63 SSW 6 9 30.00 1016 10 16 0.00 0.00
9:54 am 09:54 Mostly Cloudy 30 -1.1 15 -9.4 54 54 S 5 7 29.98 1015 10 16 0.00 0.00
10:54 am 10:54 Partly Cloudy 34 1.1 15 -9.4 46 46 SW 6 9 29.96 1014 10 16 0.00 0.00
11:54 am 11:54 Partly Cloudy 36 2.2 14 -10 40 40 SW 9 15 29.92 1013 10 16 0.00 0.00
12:54 pm 12:54 Mostly Cloudy 38 3.3 14 -10 37 37 WSW 7 11 29.87 1012 10 16 0.00 0.00
1:54 pm 13:54 Mostly Cloudy 39 3.9 15 -9.4 38 38 WSW 8 13 29.85 1011 10 16 0.00 0.00
2:54 pm 14:54 Mostly Cloudy 39 3.9 15 -9.4 38 38 SSW 7 11 29.82 1010 10 16 0.00 0.00
3:54 pm 15:54 Mostly Cloudy 38 3.3 16 -8.9 41 41 S 5 7 29.80 1009 10 16 0.00 0.00
4:54 pm 16:54 Cloudy 38 3.3 16 -8.9 41 41 SW 5 7 29.79 1009 10 16 0.00 0.00
5:54 pm 17:54 Cloudy 38 3.3 18 -7.8 44 44 SW 12 19 29.80 1009 10 16 0.00 0.00
6:11 pm 18:11 Cloudy with Light Snow 37 2.8 18 -7.8 46 46 SW 12 19 29.81 1010 10 16 0.00 0.00
6:33 pm 18:33 Cloudy with Light Snow 37 2.8 19 -7.2 48 48 W 9 15 29.81 1010 9 14 0.00 0.00
6:52 pm 18:52 Cloudy 37 3 19 -7 48 48 WSW 9 15 29.80 1009 10 16 0.00 0.00
6:54 pm 18:54 Cloudy 37 2.8 19 -7.2 48 48 SW 8 13 29.80 1009 10 16 0.00 0.00
7:54 pm 19:54 Cloudy 36 2.2 21 -6.1 55 55 S 6 9 29.80 1009 10 16 0.00 0.00
8:54 pm 20:54 Cloudy 35 1.7 20 -6.7 54 54 S 5 7 29.80 1009 10 16 0.00 0.00
9:54 pm 21:54 Cloudy 35 1.7 21 -6.1 57 57 S 3 6 29.80 1009 10 16 0.00 0.00
10:54 pm 22:54 Cloudy 34 1.1 23 -5 64 64 SW 3 6 29.80 1009 10 16 0.00 0.00
11:54 pm 23:54 Mostly Cloudy 33 0.6 22 -5.6 64 64 WSW 5 7 29.80 1009 10 16 0.00 0.00

Powered by AerisWeather